STARLINK-4391, 53189

Orbit data source: Space-Track

STARLINK-4391, 53189 is a payload satellite owned by SpaceX/Seattle (US) in SSO that was launched on Fri, 22 Jul 2022 UTC via an FALCON 9 launch vehicle from the Air Force Western Test Range (AFWTR). Payload-class satellites include a variety of spacecraft equipped with specific instruments for various scientific and technological missions. These include communications satellites like Starlink; space stations such as the ISS; scientific satellites like the Hubble; Earth observation satellites from companies like Planet Labs, Umbra, and HawkEye 360; GPS; miniature CubeSats for education and research; and military/defense satellites.

Loading next visibility...
Identifier
53189, 2022-084A
Orbit
SSO
Country
Flag of USUS
Related business
Manufacturer
SpaceX/Seattle
Mission
Operational Commercial Communications
Bus & Motor
STARLINK, Unknown motor
Mass
297 kg wet, ~275 kg dry
Launch date (UTC)
2022-07-22 (4 years ago)
Launch vehicle
FALCON 9
Launch site
Air Force Western Test Range (AFWTR)
Object type
Payload
Rocket body
Debris
Shape & HBR
Box + 1 Pan, 10.1 m
Radar Cross Section
13.562 m², Large (>1 m²)

Expand to show TLE details & history
Last TLE update: 2 days ago

TLE from 2 days ago
0 STARLINK-4391
1 53189U 22084A   26171.10253746  .00000616  00000-0  46674-4 0  9991
2 53189  97.3421 231.0426 0002079  46.3937 313.7463 15.05654012215466
Epoch: 2026-06-20T02:27Z
TLE epoch observation values (Epoch: 2026-06-20T02:27:39.236Z)
Latitude
-0°
Longitude
-74.19286°
Altitude
551.576 km
Speed
7.587 km/s
True Right ascension
15h 24m 10s
True Declination
0° 00' 00"
Sunlit
Object was in full shadow at epoch
Visualization orbit readout
Latitude
Unknown
Longitude
Unknown
Altitude
Unknown
Speed
Unknown
Apparent Right ascension
Unknown
Apparent Declination
Unknown
Sunlit
N/A
Visualization observer readout
Local Sidereal Time
21:27:15
Azimuth
Unknown
Elevation
Unknown
Doppler factor
Unknown
Orbital elements
Apogee altitude
547.921 km
Perigee altitude
545.042 km
Semi-major axis
6,924.618 km
Eccentricity
0.00021
Inclination
97.3421°
RAAN
231.0426°
Arg. of periapsis
46.3937°
True anomaly
313.72909°
Mean anomaly
313.7463°
Eccentric anomaly
313.73769°
Mean motion
3.7666 °/min
Orbital period
95.58 mins
BSTAR
0.000046674
Loading maneuver chart data...
Computing Atmospheric mass density...
Loading historical data...
Loading historical data...
Loading historical data...
Loading historical data...
Loading historical data...
Loading historical data...
Loading historical data...

Documentation

Showing up to 5 results
|